Location: *
(2.5500°S, 65.9667°W)
Time: 11:47:24
(UTC+00:00)

Delta 168 - Pass Details

Date: 26 October 2021
Orbit: 394 x 2041 km, 25.3° (Epoch: 28 November)

Event Time Altitude Azimuth Distance (km) Brightness Sun altitude
Rises 22:36:25 0° 264° (W) 2,285 8.4 -6.4°
Reaches altitude 10° 22:38:43 10° 281° (W) 1,417 6.2 -7.0°
Maximum altitude 22:41:13 22° 336° (NNW) 936 4.1 -7.6°
Drops below altitude 10° 22:43:58 10° 30° (NNE) 1,563 4.7 -8.2°
Enters shadow 22:45:06 - 38° (NE) 1,982 5.2 -8.5°
